| time (UTC) | temp F | wind direction | speed MPH | gust MPH | rain 1hr in | rain 24hr in | rain mn in | humidity % | barometer mb |
| 20260902094602 | 64 | 0 | 0.0 | 0.0 | 0.00 | 0.00 | 0.00 | 86 | 1015.5 |
| 20260902093058 | 64 | 0 | 0.0 | 0.0 | 0.00 | 0.00 | 0.00 | 86 | 1015.6 |
| 20260902091605 | 65 | 0 | 0.0 | 0.0 | 0.00 | 0.00 | 0.00 | 86 | 1015.5 |
| 20260902090128 | 65 | 0 | 0.0 | 0.0 | 0.00 | 0.00 | 0.00 | 86 | 1015.6 |
| 20260902084603 | 65 | 0 | 0.0 | 2.0 | 0.00 | 0.00 | 0.00 | 86 | 1015.6 |
| 20260902083100 | 65 | 0 | 0.0 | 0.0 | 0.00 | 0.00 | 0.00 | 85 | 1015.5 |
| 20260902081555 | 65 | 0 | 0.0 | 0.0 | 0.00 | 0.00 | 0.00 | 84 | 1015.7 |
| 20260902080109 | 66 | 0 | 0.0 | 0.0 | 0.00 | 0.00 | 0.00 | 83 | 1015.6 |
| 20260902074558 | 66 | 0 | 0.0 | 1.0 | 0.00 | 0.00 | 0.00 | 83 | 1015.7 |
| 20260902073100 | 67 | 0 | 0.0 | 1.0 | 0.00 | 0.00 | 0.00 | 82 | 1015.5 |
| 20260902071555 | 67 | 0 | 0.0 | 2.0 | 0.00 | 0.00 | 0.00 | 82 | 1015.2 |
| 20260902070106 | 67 | 0 | 0.0 | 2.0 | 0.00 | 0.00 | 0.00 | 82 | 1015.2 |
| 20260902064607 | 67 | 0 | 0.0 | 2.0 | 0.00 | 0.00 | 0.00 | 82 | 1015.1 |
| 20260902063053 | 68 | 0 | 0.0 | 1.0 | 0.00 | 0.00 | 0.00 | 81 | 1015.1 |
| 20260902061625 | 68 | 165 | 0.0 | 3.0 | 0.00 | 0.00 | 0.00 | 81 | 1015.1 |
| 20260902060104 | 68 | 0 | 0.0 | 1.0 | 0.00 | 0.00 | 0.00 | 80 | 1015.0 |
| 20260902054604 | 68 | 0 | 0.0 | 2.0 | 0.00 | 0.00 | 0.00 | 80 | 1014.8 |
| 20260902053058 | 69 | 0 | 0.0 | 5.0 | 0.00 | 0.00 | 0.00 | 79 | 1014.8 |
| 20260902051557 | 69 | 0 | 1.0 | 4.0 | 0.00 | 0.00 | 0.00 | 78 | 1014.9 |
| 20260902050107 | 69 | 0 | 0.0 | 4.0 | 0.00 | 0.00 | 0.00 | 78 | 1014.8 |
| 20260902044603 | 69 | 0 | 0.0 | 3.0 | 0.00 | 0.00 | 0.00 | 79 | 1014.7 |
| 20260902043104 | 69 | 109 | 0.0 | 4.0 | 0.00 | 0.00 | 0.00 | 78 | 1014.5 |
| 20260902041605 | 69 | 138 | 0.0 | 3.0 | 0.00 | 0.00 | 0.00 | 76 | 1014.4 |
| 20260902040053 | 69 | 0 | 0.0 | 5.0 | 0.00 | 0.00 | 0.00 | 76 | 1014.2 |
| 20260902034601 | 69 | 154 | 1.0 | 4.0 | 0.00 | 0.00 | 0.00 | 76 | 1013.9 |
| 20260902033106 | 69 | 138 | 1.0 | 7.0 | 0.00 | 0.00 | 0.00 | 77 | 1013.7 |
| 20260902031555 | 69 | 125 | 0.0 | 6.0 | 0.00 | 0.00 | 0.00 | 77 | 1013.6 |
| 20260902030118 | 69 | 116 | 2.0 | 7.0 | 0.00 | 0.00 | 0.00 | 77 | 1013.8 |
| 20260902024601 | 69 | 130 | 1.0 | 6.0 | 0.00 | 0.00 | 0.00 | 78 | 1013.7 |
| 20260902023112 | 69 | 109 | 1.0 | 7.0 | 0.00 | 0.00 | 0.00 | 79 | 1013.5 |
| 20260902021621 | 70 | 143 | 1.0 | 7.0 | 0.00 | 0.00 | 0.00 | 81 | 1013.4 |
| 20260902020104 | 71 | 170 | 2.0 | 9.0 | 0.00 | 0.00 | 0.00 | 77 | 1013.5 |
| 20260902014557 | 72 | 115 | 1.0 | 7.0 | 0.00 | 0.00 | 0.00 | 76 | 1013.6 |
| 20260902013106 | 73 | 0 | 1.0 | 7.0 | 0.00 | 0.00 | 0.00 | 75 | 1013.6 |
| 20260902011602 | 73 | 162 | 1.0 | 7.0 | 0.00 | 0.00 | 0.00 | 75 | 1013.7 |
| 20260902004559 | 74 | 149 | 1.0 | 6.0 | 0.00 | 0.00 | 0.00 | 74 | 1013.8 |
| 20260902003101 | 73 | 162 | 3.0 | 10.0 | 0.00 | 0.00 | 0.00 | 74 | 1013.9 |
| 20260902001604 | 74 | 129 | 1.0 | 12.0 | 0.00 | 0.00 | 0.00 | 74 | 1013.8 |
| 20260902000104 | 74 | 180 | 1.0 | 11.0 | 0.00 | 0.00 | 0.00 | 74 | 1013.9 |
| 20260901234614 | 74 | 150 | 1.0 | 9.0 | 0.00 | 0.00 | 0.00 | 74 | 1013.9 |
| 20260901233107 | 74 | 146 | 3.0 | 10.0 | 0.00 | 0.00 | 0.00 | 72 | 1014.0 |
| 20260901231606 | 74 | 152 | 3.0 | 10.0 | 0.00 | 0.00 | 0.00 | 73 | 1014.0 |
| 20260901230138 | 75 | 144 | 5.0 | 12.0 | 0.00 | 0.00 | 0.00 | 72 | 1014.1 |
| 20260901224601 | 75 | 109 | 2.0 | 9.0 | 0.00 | 0.00 | 0.00 | 72 | 1014.2 |
| 20260901223110 | 75 | 155 | 3.0 | 10.0 | 0.00 | 0.00 | 0.00 | 73 | 1014.2 |
| 20260901221603 | 75 | 138 | 2.0 | 7.0 | 0.00 | 0.00 | 0.00 | 70 | 1014.4 |
| 20260901220108 | 76 | 108 | 3.0 | 9.0 | 0.00 | 0.00 | 0.00 | 69 | 1014.4 |
| 20260901214556 | 76 | 232 | 3.0 | 10.0 | 0.00 | 0.00 | 0.00 | 70 | 1014.5 |
| 20260901213054 | 76 | 107 | 2.0 | 10.0 | 0.00 | 0.00 | 0.00 | 70 | 1014.7 |
| 20260901211603 | 77 | 0 | 1.0 | 8.0 | 0.00 | 0.00 | 0.00 | 70 | 1014.8 |
| 20260901210104 | 76 | 127 | 3.0 | 8.0 | 0.00 | 0.00 | 0.00 | 70 | 1015.0 |
| 20260901204555 | 76 | 122 | 2.0 | 10.0 | 0.00 | 0.00 | 0.00 | 69 | 1015.0 |
| 20260901203120 | 76 | 117 | 3.0 | 7.0 | 0.00 | 0.00 | 0.00 | 70 | 1015.1 |
| 20260901201602 | 76 | 170 | 2.0 | 10.0 | 0.00 | 0.00 | 0.00 | 70 | 1015.3 |
| 20260901200106 | 77 | 98 | 2.0 | 9.0 | 0.00 | 0.00 | 0.00 | 69 | 1015.5 |
| 20260901194605 | 76 | 113 | 3.0 | 9.0 | 0.00 | 0.00 | 0.00 | 70 | 1015.5 |
| 20260901193106 | 77 | 86 | 1.0 | 7.0 | 0.00 | 0.00 | 0.00 | 69 | 1015.6 |
| 20260901191603 | 78 | 273 | 1.0 | 6.0 | 0.00 | 0.00 | 0.00 | 68 | 1015.7 |
| 20260901190109 | 77 | 73 | 1.0 | 5.0 | 0.00 | 0.00 | 0.00 | 69 | 1015.7 |
| 20260901184556 | 76 | 134 | 2.0 | 7.0 | 0.00 | 0.00 | 0.00 | 70 | 1015.7 |
| 20260901183110 | 76 | 149 | 2.0 | 5.0 | 0.00 | 0.00 | 0.00 | 71 | 1015.7 |
| 20260901181604 | 76 | 162 | 1.0 | 7.0 | 0.00 | 0.00 | 0.00 | 72 | 1015.8 |
| 20260901180104 | 75 | 136 | 1.0 | 7.0 | 0.00 | 0.00 | 0.00 | 73 | 1015.8 |
| 20260901174558 | 75 | 139 | 1.0 | 5.0 | 0.00 | 0.00 | 0.00 | 73 | 1015.8 |
| 20260901173109 | 74 | 34 | 0.0 | 4.0 | 0.00 | 0.00 | 0.00 | 76 | 1015.8 |
| 20260901171555 | 73 | 35 | 2.0 | 7.0 | 0.00 | 0.00 | 0.00 | 76 | 1015.7 |
| 20260901170104 | 72 | 67 | 1.0 | 5.0 | 0.00 | 0.00 | 0.00 | 77 | 1015.6 |
| 20260901164633 | 71 | 0 | 1.0 | 4.0 | 0.00 | 0.00 | 0.00 | 78 | 1015.5 |
| 20260901163053 | 71 | 9 | 3.0 | 7.0 | 0.00 | 0.00 | 0.00 | 79 | 1015.5 |
| 20260901161607 | 71 | 0 | 1.0 | 4.0 | 0.00 | 0.00 | 0.00 | 81 | 1015.6 |
| 20260901160105 | 70 | 41 | 2.0 | 10.0 | 0.00 | 0.00 | 0.00 | 81 | 1015.6 |
| 20260901154600 | 70 | 0 | 3.0 | 7.0 | 0.00 | 0.00 | 0.00 | 82 | 1015.5 |
| 20260901153059 | 70 | 360 | 1.0 | 4.0 | 0.00 | 0.00 | 0.00 | 82 | 1015.4 |
| 20260901151555 | 70 | 338 | 1.0 | 5.0 | 0.00 | 0.00 | 0.00 | 81 | 1015.4 |
| 20260901144600 | 69 | 0 | 0.0 | 2.0 | 0.00 | 0.00 | 0.00 | 84 | 1015.0 |
| 20260901143100 | 67 | 134 | 0.0 | 2.0 | 0.00 | 0.00 | 0.00 | 88 | 1014.9 |
| 20260901141610 | 65 | 0 | 1.0 | 2.0 | 0.00 | 0.00 | 0.00 | 90 | 1014.7 |
| 20260901140056 | 64 | 132 | 1.0 | 3.0 | 0.00 | 0.00 | 0.00 | 91 | 1014.6 |
| 20260901134604 | 63 | 0 | 0.0 | 1.0 | 0.00 | 0.00 | 0.00 | 90 | 1014.6 |
| 20260901133104 | 64 | 134 | 0.0 | 1.0 | 0.00 | 0.00 | 0.00 | 90 | 1014.6 |
| 20260901131603 | 64 | 0 | 0.0 | 0.0 | 0.00 | 0.00 | 0.00 | 89 | 1014.3 |
| 20260901130106 | 64 | 0 | 0.0 | 1.0 | 0.00 | 0.00 | 0.00 | 90 | 1014.1 |
| 20260901124602 | 64 | 0 | 0.0 | 1.0 | 0.00 | 0.00 | 0.00 | 90 | 1014.1 |
| 20260901123101 | 64 | 0 | 0.0 | 2.0 | 0.00 | 0.00 | 0.00 | 90 | 1014.3 |
| 20260901121613 | 64 | 0 | 0.0 | 3.0 | 0.00 | 0.00 | 0.00 | 90 | 1014.1 |
| 20260901120105 | 64 | 0 | 0.0 | 2.0 | 0.00 | 0.00 | 0.00 | 91 | 1014.0 |
| 20260901114605 | 64 | 0 | 0.0 | 0.0 | 0.00 | 0.00 | 0.00 | 90 | 1014.0 |
| 20260901113103 | 64 | 0 | 0.0 | 1.0 | 0.00 | 0.00 | 0.00 | 89 | 1013.9 |
| 20260901111609 | 64 | 0 | 0.0 | 1.0 | 0.00 | 0.00 | 0.00 | 89 | 1014.0 |
| 20260901110057 | 65 | 0 | 0.0 | 1.0 | 0.00 | 0.00 | 0.00 | 89 | 1014.1 |
| 20260901104603 | 65 | 0 | 0.0 | 1.0 | 0.00 | 0.00 | 0.00 | 89 | 1014.2 |
| 20260901103124 | 65 | 0 | 0.0 | 2.0 | 0.00 | 0.00 | 0.00 | 89 | 1014.3 |
| 20260901101602 | 65 | 0 | 0.0 | 1.0 | 0.00 | 0.00 | 0.00 | 88 | 1014.2 |
| 20260901100106 | 65 | 0 | 0.0 | 1.0 | 0.00 | 0.00 | 0.00 | 87 | 1014.4 |